This is the latest recevied weather packets stored in our database for station/object KO4ZGL-13. If no packets are shown the sender has not sent any weather packets the latest 10 day(s).
| Time | Temp. | Humidity | Pressure | Rain* | Wind** | Luminosity | Snow |
|---|---|---|---|---|---|---|---|
| 1787617537 | 28.33° C | 82% | 1014.2 hPa | 0 mm | - | 0 W/m² | - |
| 1787617236 | 28.33° C | 80% | 1014 hPa | 0 mm | - | 0 W/m² | - |
| 1787616935 | 28.33° C | 80% | 1014.1 hPa | 0 mm | - | 0 W/m² | - |
| 1787616631 | 28.33° C | 81% | 1014.1 hPa | 0 mm | - | 0 W/m² | - |
| 1787616329 | 28.33° C | 81% | 1014 hPa | 0 mm | - | 0 W/m² | - |
| 1787616028 | 27.78° C | 81% | 1013.7 hPa | 0 mm | - | 0 W/m² | - |
| 1787615723 | 28.89° C | 84% | 1013.8 hPa | 0 mm | - | 1 W/m² | - |
| 1787615423 | 28.89° C | 85% | 1013.7 hPa | 0 mm | - | 3 W/m² | - |
| 1787615119 | 28.89° C | 85% | 1013.9 hPa | 0 mm | - | 6 W/m² | - |
| 1787614815 | 29.44° C | 84% | 1013.6 hPa | 0 mm | - | 11 W/m² | - |
| 1787614511 | 29.44° C | 84% | 1013.6 hPa | 0 mm | - | 12 W/m² | - |
| 1787614208 | 29.44° C | 83% | 1013.6 hPa | 0 mm | - | 16 W/m² | - |
| 1787613904 | 30° C | 83% | 1013.6 hPa | 0 mm | - | 18 W/m² | - |
| 1787613600 | 30° C | 80% | 1013.8 hPa | 0 mm | - | 23 W/m² | - |
| 1787613294 | 30° C | 79% | 1013.6 hPa | 0 mm | - | 25 W/m² | - |
| 1787612991 | 30° C | 77% | 1013.4 hPa | 0 mm | - | 28 W/m² | - |
| 1787612687 | 30.56° C | 76% | 1013.6 hPa | 0 mm | - | 31 W/m² | - |
| 1787612383 | 30.56° C | 75% | 1013.4 hPa | 0 mm | - | 34 W/m² | - |
| 1787612078 | 31.11° C | 73% | 1013.4 hPa | 0 mm | - | 39 W/m² | - |
| 1787611774 | 31.11° C | 72% | 1013.5 hPa | 0 mm | - | 42 W/m² | - |
| 1787611471 | 31.67° C | 70% | 1013.3 hPa | 0 mm | - | 46 W/m² | - |
| 1787611166 | 31.67° C | 70% | 1013.2 hPa | 0 mm | - | 47 W/m² | - |
| 1787610861 | 31.67° C | 69% | 1013.5 hPa | 0 mm | - | 49 W/m² | - |
| 1787610557 | 31.67° C | 72% | 1013.4 hPa | 0 mm | - | 52 W/m² | - |
| 1787610257 | 32.22° C | 71% | 1013.2 hPa | 0 mm | - | 56 W/m² | - |
* Rain latest hour (hover to see other rain measurements)
** Current wind speed in m/s (hover to see current wind gust speed)